Location: Czu?�w
(50.1404°N, 18.9919°E)
Time: 03:09:28
(UTC+00:00)

Cosmos 2369 Rocket - Pass Details

Date: 27 October 2020
Orbit: 827 x 854 km, 71.0° (Epoch: 24 November)

Event Time Altitude Azimuth Distance (km) Brightness Sun altitude
Rises 16:17:20 0° 246° (WSW) 3,400 7.3 -8.4°
Reaches altitude 10° 16:20:08 10° 258° (WSW) 2,472 6.4 -8.8°
Maximum altitude 16:24:57 28° 317° (NW) 1,558 4.0 -9.6°
Drops below altitude 10° 16:29:50 10° 15° (NNE) 2,494 4.4 -10.3°
Sets 16:32:40 0° 27° (NNE) 3,435 5.0 -10.8°
